Location: Alto Pass Reservoir
(37.5801°N, 89.3084°W)
Time: 02:29:50
(UTC+00:00)

Cosmos 1666 - Visible Passes

Search period start: 28 June 2022 00:00
Search period end: 08 July 2022 00:00
Orbit: 489 x 512 km, 82.5° (Epoch: 27 June)

Date Brightness Start Highest point End Pass type
(mag) Time Alt. Az. Time Alt. Az. Time Alt. Az.
28 Jun 5.3 08:55:41 10° SE 08:58:08 17° E 09:00:36 10° NE visible
29 Jun 5.5 08:37:09 10° ESE 08:38:37 12° E 08:40:06 10° ENE visible
30 Jun 2.9 09:50:20 10° SSW 09:53:59 50° W 09:57:39 10° N visible
01 Jul 2.6 09:30:59 13° SSW 09:34:20 75° W 09:38:05 10° N visible
02 Jul 2.7 09:11:54 17° S 09:14:42 74° E 09:18:26 10° N visible
03 Jul 3.4 08:52:48 20° SSE 08:55:05 50° E 08:58:43 10° NNE visible
04 Jul 4.0 08:33:39 21° SE 08:35:28 34° E 08:38:53 10° NNE visible
04 Jul 4.8 10:09:22 10° W 10:11:00 12° WNW 10:12:38 10° NW visible
05 Jul 4.6 08:14:28 19° ESE 08:15:53 24° E 08:18:56 10° NE visible
05 Jul 4.4 09:49:11 12° WSW 09:51:14 17° WNW 09:53:46 10° NNW visible
06 Jul 4.9 07:55:16 16° ESE 07:56:18 17° E 07:58:47 10° NE visible
06 Jul 4.0 09:29:59 18° WSW 09:31:29 24° WNW 09:34:33 10° NNW visible
07 Jul 5.3 07:36:01 12° E 07:36:43 12° E 07:38:16 10° ENE visible
07 Jul 3.5 09:10:44 28° WSW 09:11:46 33° WNW 09:15:10 10° NNW visible
